Tianfu Dongpo 08

operational
NORAD ID: 54686 Int'l Des: 2022-167 Owner: CGSTL/MEIHUA Country: CN
LEOCIRCULARRETROGRADESSO

About Tianfu Dongpo 08

Description loading...

Live Position

Loading 3D Globe...

Upcoming Passes

Altitude History

Altitude vs Time

uPlot chart will show altitude changes over time

Two-Line Element Set

1 54686U 22167E 26061.18126892 .00015130 00000-0 50244-3 0 9997
2 54686 97.6742 225.3365 0008897 180.4443 179.6791 15.31281951178932
Epoch: Mar 2, 2026 • Age: 29 hours

Current Status

Altitude 495.3 km
Velocity 7.61 km/s
Sub-Earth Point -49.31°S, 4.02°W
Launch Date Dec 9, 2022
Age 3.2 years
Type other

Technical Details

Classification Payload
Mass 42.00 kg
Dry Mass 42.00 kg
Total Mass 42.00 kg
Length 1.50 m
Diameter 1.00 m
Span 1.50 m
Shape Box
Manufacturer CGSTL
Bus Type JL-1
Phase Status In Orbit
Owner/State CGSTL/MEIHUA/CN

Large Constellations

Loading constellations...